Overview Statistics Trail Chart Weather Telemetry Raw packets
 

This is the latest recevied weather packets stored in our database for station/object EA2MKR. If no packets are shown the sender has not sent any weather packets the latest 10 day(s).

<< 2 3 4 5 6 7 8 >>
Time Temp. Humidity Pressure Rain* Wind** Luminosity Snow
1788608685 33.33° C 30% 959.6 hPa 0 mm - - -
1788608386 32.78° C 31% 959.6 hPa 0 mm - - -
1788608085 32.22° C 32% 959.7 hPa 0 mm - - -
1788607873 32.22° C 33% 959.8 hPa 0 mm - - -
1788607485 31.67° C 33% 959.9 hPa 0 mm - - -
1788607185 31.67° C 34% 959.9 hPa 0 mm - - -
1788606885 31.67° C 35% 959.9 hPa 0 mm - - -
1788606584 31.11° C 33% 960.1 hPa 0 mm - - -
1788606284 30.56° C 38% 960.1 hPa 0 mm - - -
1788605985 30.56° C 39% 960.1 hPa 0 mm - - -
1788605684 30° C 40% 960.3 hPa 0 mm - - -
1788605385 30° C 41% 960.2 hPa 0 mm - - -
1788605084 29.44° C 41% 960.3 hPa 0 mm - - -
1788604784 29.44° C 43% 960.4 hPa 0 mm - - -
1788604485 28.89° C 45% 960.4 hPa 0 mm - - -
1788604273 28.33° C 47% 960.4 hPa 0 mm - - -
1788603882 28.33° C 49% 960.4 hPa 0 mm - - -
1788603584 27.78° C 48% 960.4 hPa 0 mm - - -
1788603284 27.78° C 49% 960.5 hPa 0 mm - - -
1788603072 27.22° C 50% 960.7 hPa 0 mm - - -
1788602683 27.22° C 50% 960.5 hPa 0 mm - - -
1788602383 26.67° C 50% 960.7 hPa 0 mm - - -
1788602083 26.67° C 50% 960.6 hPa 0 mm - - -
1788601873 26.67° C 50% 960.6 hPa 0 mm - - -
1788601483 26.11° C 51% 960.5 hPa 0 mm - - -

* Rain latest hour (hover to see other rain measurements)
** Current wind speed in m/s (hover to see current wind gust speed)